Change the Weather History Date:

Sunday, July 7, 2013

  Actual Average Record
Temperature  
Mean Temperature 85 °F -  
Max Temperature 97 °F 89 °F 105 °F (1954)
Min Temperature 73 °F 66 °F 53 °F (2004)
Cooling Degree Days 20    
Growing Degree Days 35 (Base 50)    
Moisture  
Dew Point 63 °F    
Average Humidity 51    
Maximum Humidity 69    
Minimum Humidity 31    
Precipitation  
Precipitation 0.00 in - - ()
Sea Level Pressure  
Sea Level Pressure 29.87 in    
Wind  
Wind Speed 13 mph (South)    
Max Wind Speed 23 mph    
Max Gust Speed 30 mph    
Visibility 10 miles    
Events      
Averages and records for this station are not official NWS values.
T = Trace of Precipitation, MM = Missing Value Source: NWS Daily Summary

Daily Weather History Graph

Daily Weather History Graph

Search for Another Location

Airport or City:

Trip Planner

Search our weather history database for the weather conditions in past years. The results will help you decide how hot, cold, wet, or windy it might be!

Date:

Astronomy

Jul. 07, 2013 Rise Set
Actual Time 6:04 AM CDT 8:59 PM CDT
Civil Twilight 5:31 AM CDT 9:31 PM CDT
Nautical Twilight 4:50 AM CDT 10:12 PM CDT
Astronomical Twilight 4:02 AM CDT 11:00 PM CDT
Moon 5:41 AM CDT (7/7) 8:23 PM CDT (7/7)
Length of Visible Light 15h 59m
Length of Day
14h 54m
Waning Crescent, 0% of the Moon is Illuminated
Jul 7
Waning Crescent
Jul 8
New
Jul 15
First Quarter
Jul 22
Full
Jul 29
Last Quarter

Hourly Weather History & Observations

Time (CDT) Temp. Heat Index Dew Point Humidity Pressure Visibility Wind Dir Wind Speed Gust Speed Precip Events Conditions
12:15 AM 76.5 °F - 60.8 °F 58% 29.87 in 10.0 mi South 15.0 mph 20.7 mph N/A   Clear
12:35 AM 76.5 °F - 60.4 °F 58% 29.87 in 10.0 mi South 11.5 mph 20.7 mph N/A   Scattered Clouds
12:55 AM 76.6 °F - 60.4 °F 57% 29.87 in 10.0 mi SSE 11.5 mph 17.3 mph N/A   Mostly Cloudy
1:15 AM 76.6 °F - 60.4 °F 57% 29.87 in 10.0 mi South 15.0 mph - N/A   Scattered Clouds
1:35 AM 76.3 °F - 60.8 °F 59% 29.87 in 10.0 mi South 9.2 mph - N/A   Scattered Clouds
1:55 AM 76.1 °F - 60.8 °F 59% 29.86 in 7.0 mi SSE 9.2 mph - N/A   Scattered Clouds
2:15 AM 76.1 °F - 61.0 °F 59% 29.86 in 10.0 mi South 9.2 mph - N/A   Clear
2:35 AM 76.3 °F - 61.0 °F 59% 29.87 in 10.0 mi South 11.5 mph - N/A   Scattered Clouds
2:55 AM 76.3 °F - 61.3 °F 60% 29.86 in 10.0 mi SSE 10.4 mph - N/A   Scattered Clouds
3:15 AM 76.3 °F - 61.7 °F 60% 29.87 in 10.0 mi South 10.4 mph - N/A   Clear
3:35 AM 75.6 °F - 61.7 °F 62% 29.87 in 10.0 mi SSE 9.2 mph - N/A   Clear
3:55 AM 74.8 °F - 61.9 °F 64% 29.88 in 10.0 mi SSE 9.2 mph - N/A   Clear
4:15 AM 74.3 °F - 62.1 °F 65% 29.87 in 10.0 mi South 10.4 mph - N/A   Clear
4:35 AM 73.9 °F - 61.7 °F 65% 29.87 in 10.0 mi South 12.7 mph - N/A   Clear
4:55 AM 73.9 °F - 61.3 °F 65% 29.87 in 10.0 mi South 13.8 mph 18.4 mph N/A   Clear
5:15 AM 74.3 °F - 61.7 °F 65% 29.86 in 10.0 mi South 13.8 mph 19.6 mph N/A   Clear
5:35 AM 74.3 °F - 61.9 °F 65% 29.87 in 10.0 mi South 13.8 mph 21.9 mph N/A   Clear
5:55 AM 73.9 °F - 62.2 °F 67% 29.87 in 10.0 mi South 15.0 mph 21.9 mph N/A   Clear
6:15 AM 74.3 °F - 62.6 °F 67% 29.87 in 10.0 mi South 15.0 mph 20.7 mph N/A   Clear
6:35 AM 74.3 °F - 62.8 °F 67% 29.87 in 10.0 mi South 15.0 mph 24.2 mph N/A   Clear
6:55 AM 74.5 °F - 63.3 °F 68% 29.87 in 10.0 mi South 15.0 mph 23.0 mph N/A   Clear
7:15 AM 75.0 °F - 63.5 °F 67% 29.88 in 10.0 mi South 15.0 mph 20.7 mph N/A   Clear
7:35 AM 75.4 °F - 63.9 °F 67% 29.88 in 10.0 mi South 15.0 mph 19.6 mph N/A   Clear
7:55 AM 76.3 °F - 64.0 °F 66% 29.88 in 10.0 mi South 13.8 mph 20.7 mph N/A   Clear
8:15 AM 77.4 °F - 64.4 °F 64% 29.88 in 10.0 mi South 15.0 mph 26.5 mph N/A   Clear
8:35 AM 78.3 °F - 64.4 °F 62% 29.88 in 10.0 mi South 13.8 mph 21.9 mph N/A   Clear
8:55 AM 79.7 °F - 64.0 °F 59% 29.88 in 10.0 mi South 17.3 mph 24.2 mph N/A   Clear
9:15 AM 80.2 °F 81.8 °F 63.7 °F 57% 29.88 in 10.0 mi South 23.0 mph 27.6 mph N/A   Clear
9:35 AM 81.5 °F 83.1 °F 64.2 °F 56% 29.88 in 10.0 mi SSW 16.1 mph 24.2 mph N/A   Clear
9:55 AM 81.9 °F 83.4 °F 64.0 °F 55% 29.88 in 10.0 mi SSW 20.7 mph 25.3 mph N/A   Clear
10:15 AM 83.3 °F 84.6 °F 63.9 °F 52% 29.88 in 10.0 mi SSW 20.7 mph 27.6 mph N/A   Clear
10:35 AM 85.1 °F 86.4 °F 63.9 °F 49% 29.88 in 10.0 mi SSW 18.4 mph 26.5 mph N/A   Clear
10:55 AM 86.2 °F 87.3 °F 63.5 °F 47% 29.88 in 10.0 mi SSW 18.4 mph 24.2 mph N/A   Clear
11:15 AM 87.8 °F 88.5 °F 62.4 °F 43% 29.88 in 10.0 mi SW 20.7 mph 27.6 mph N/A   Clear
11:35 AM 88.3 °F 88.6 °F 61.7 °F 41% 29.88 in 10.0 mi SSW 21.9 mph 29.9 mph N/A   Clear
11:55 AM 89.1 °F 89.3 °F 62.1 °F 40% 29.88 in 10.0 mi SW 17.3 mph 25.3 mph N/A   Scattered Clouds
12:15 PM 90.1 °F 90.6 °F 62.2 °F 39% 29.88 in 10.0 mi SSW 15.0 mph 19.6 mph N/A   Scattered Clouds
12:35 PM 90.3 °F 90.2 °F 60.8 °F 37% 29.88 in 10.0 mi SW 16.1 mph 21.9 mph N/A   Clear
12:55 PM 91.2 °F 91.1 °F 61.2 °F 36% 29.87 in 10.0 mi SW 17.3 mph - N/A   Clear
1:15 PM 92.3 °F 92.7 °F 61.9 °F 36% 29.88 in 10.0 mi SW 12.7 mph - N/A   Clear
1:35 PM 92.3 °F 92.3 °F 61.2 °F 35% 29.88 in 10.0 mi South 16.1 mph 19.6 mph N/A   Clear
1:55 PM 93.2 °F 93.3 °F 61.3 °F 34% 29.87 in 10.0 mi WSW 16.1 mph 23.0 mph N/A   Clear
2:15 PM 94.1 °F 95.0 °F 62.2 °F 35% 29.88 in 10.0 mi SSW 12.7 mph - N/A   Clear
2:35 PM 94.5 °F 94.4 °F 60.6 °F 32% 29.88 in 10.0 mi SSW 15.0 mph - N/A   Scattered Clouds
2:55 PM 94.5 °F 95.2 °F 61.9 °F 34% 29.88 in 10.0 mi SW 12.7 mph 18.4 mph N/A   Scattered Clouds
3:15 PM 94.3 °F 95.3 °F 62.4 °F 35% 29.88 in 10.0 mi SW 10.4 mph 16.1 mph N/A   Clear
3:35 PM 94.6 °F 95.1 °F 61.0 °F 33% 29.87 in 10.0 mi SSW 11.5 mph 18.4 mph N/A   Clear
3:55 PM 95.7 °F 96.7 °F 62.1 °F 33% 29.87 in 10.0 mi SW 15.0 mph - N/A   Clear
4:15 PM 96.3 °F 97.6 °F 62.4 °F 33% 29.87 in 10.0 mi SSW 12.7 mph 16.1 mph N/A   Clear
4:35 PM 97.0 °F 97.8 °F 61.5 °F 31% 29.87 in 10.0 mi SW 11.5 mph - N/A   Clear
4:55 PM 96.3 °F 97.2 °F 62.1 °F 32% 29.87 in 10.0 mi SW 11.5 mph - N/A   Clear
5:15 PM 95.2 °F 96.3 °F 63.0 °F 34% 29.87 in 10.0 mi SW 10.4 mph - N/A   Clear
5:35 PM 96.6 °F 98.2 °F 63.5 °F 33% 29.87 in 10.0 mi SW 10.4 mph - N/A   Clear
5:55 PM 96.8 °F 98.5 °F 63.7 °F 33% 29.86 in 10.0 mi SW 17.3 mph 23.0 mph N/A   Clear
6:15 PM 93.9 °F 95.2 °F 63.1 °F 36% 29.85 in 10.0 mi SW 13.8 mph 18.4 mph N/A   Clear
6:35 PM 93.7 °F 94.5 °F 62.2 °F 35% 29.85 in 10.0 mi SSW 9.2 mph - N/A   Clear
6:55 PM 93.4 °F 94.3 °F 62.6 °F 36% 29.84 in 10.0 mi South 6.9 mph - N/A   Clear
7:15 PM 92.7 °F 94.0 °F 63.3 °F 38% 29.85 in 10.0 mi SSW 9.2 mph - N/A   Clear
7:35 PM 91.0 °F 93.0 °F 65.3 °F 42% 29.84 in 10.0 mi South 4.6 mph - N/A   Clear
7:55 PM 90.7 °F 92.4 °F 64.9 °F 42% 29.84 in 10.0 mi SE 6.9 mph - N/A   Clear
8:15 PM 89.8 °F 92.5 °F 66.2 °F 46% 29.85 in 10.0 mi SE 4.6 mph - N/A   Clear
8:35 PM 88.2 °F 91.7 °F 68.2 °F 51% 29.85 in 10.0 mi SE 5.8 mph - N/A   Clear
8:55 PM 86.9 °F 91.0 °F 68.9 °F 55% 29.86 in 10.0 mi SE 3.5 mph - N/A   Clear
9:15 PM 86.0 °F 90.1 °F 69.1 °F 57% 29.87 in 10.0 mi ESE 3.5 mph - N/A   Clear
9:35 PM 84.9 °F 89.1 °F 69.4 °F 60% 29.88 in 10.0 mi East 3.5 mph - N/A   Clear
9:55 PM 83.5 °F 87.4 °F 69.8 °F 63% 29.89 in 10.0 mi East 4.6 mph - N/A   Clear
10:15 PM 82.8 °F 86.4 °F 69.6 °F 64% 29.91 in 10.0 mi East 3.5 mph - N/A   Clear
10:35 PM 81.9 °F 85.4 °F 69.4 °F 66% 29.91 in 10.0 mi East 3.5 mph - N/A   Clear
10:55 PM 81.0 °F 84.4 °F 69.8 °F 69% 29.91 in 10.0 mi ESE 3.5 mph - N/A   Clear
11:15 PM 80.8 °F 84.1 °F 69.8 °F 69% 29.91 in 10.0 mi SE 4.6 mph - N/A   Clear
11:35 PM 82.4 °F 85.0 °F 67.5 °F 60% 29.91 in 10.0 mi SSE 8.1 mph - N/A   Clear
11:55 PM 82.0 °F 84.3 °F 66.2 °F 59% 29.91 in 10.0 mi SSE 5.8 mph - N/A   Clear